Погода Октябрьский Городок

Погода Октябрьский Городок : погода сейчас, прогноз погоды и архив. Всё, что Вы хотите узнать о погоде Октябрьский Городок!

Поиск расширенной информации на нашем сайте:

Другие новости

Новости СМИ2

Главная страница сайта

Новости сайта

03.07.2017

Напоминаем, что на нашем специализированном сайте Метеоцентр.Азия вы можете получить высокодетализированные автоматические прогнозы погоды по пунктам России, СНГ и мира в авиационном формате (включающие направление и скорость ветра, видимость, явления погоды, количество и форму облачности, нижнюю и верхнюю границу облачности).


Погода Октябрьский Городок - сегодня

Время (UTC), дата Ветер
(°,м/с) 
Видим.   Явления Облачность Т
(°С)
Тd
(°С)
f(%) Тe
(°С)
Pmin
(гПа)
dP
(гПа)
Po
(мм)
O2
(г/м3)
Тmin Tmax R s Состояние
почвы
00 19.11.17 080 (В) 20000 м    ясно 
-3.9 -4.7 94 -5  1024.9  -1  749  307           
03 19.11.17 090 (В) 20000 м    10/0 средняя 
[Ac As]
-1.5 -2.1 96 -2  1023.2  -1.5  748  303  -3.9         
06 19.11.17 120 (ЮВ) 20000 м    10/10 300 м 
[St]
-0.2 -0.9 95 -1  1022.6  -0.5  748  302           
09 19.11.17 120 (ЮВ) 20000 м    10/10 300 м 
[St]
+0.2 -0.5 95 -2  1021.1  -1.3  747  301           
12 19.11.17 100 (В) 20000 м    10/9 300 м средняя 
[Frnb|As op]
+1.1 +0.1 93 1019.8  -1.2  746  299           
15 19.11.17 100 (В) 20000 м    10/10 300 м 
[St]
+1.2 +0.1 92 1019  -0.7  745  299    +1.2       
18 19.11.17 120 (ЮВ) 20000 м    10/10 300 м 
[St]
+0.7 -0.2 94 -2  1018.2  -0.9  745  299           
21 19.11.17 120 (ЮВ) 1000 м  дымка{морось}  10/10 200 м 
[St]
+1 +0.4 96 1017.9  -0.3  744  299           
00 20.11.17 100 (В) 1000 м  дымка{морось}  10/10 200 м 
[St]
+2.3 +1.7 96 +2  1016.9  -0.9  744  297           
03 20.11.17 140 (ЮВ) 1000 м  дымка{морось}  10/10 200 м 
[St]
+3.2 +2.6 96 +4  1016.5  -0.3  744  296  +0.6    0.4     
06 20.11.17 110 (В) 4000 м  слаб. морось  10/10 150 м 
[St]
+2.9 +2.3 96 +2  1016.8  0.2  744  296           
09 20.11.17 120 (ЮВ) 4000 м  слаб. морось  10/10 300 м 
[St]
+4.2 +3.6 96 +4  1016.4  -0.3  744  294           
12 20.11.17 110 (В) 4000 м  слаб. морось  10/10 300 м 
[St]
+4.1 +3.4 95 +3  1015.4  -1  743  294           
15 20.11.17 110 (В) 20000 м  {морось}  10/10 300 м 
[St]
+4.6 +3.9 95 +3  1015  -0.3  743  294    +4.6  0.4     
18 20.11.17 120 (ЮВ) 20000 м  {морось}  10/10 600 м 
[Sc]
+3.7 +3.4 98 +3  1014.2  -0.8  742  294           
21 20.11.17 110 (В) 20000 м    10/10 600 м 
[Sc]
+1.6 +0.5 92 1012.6  -1.8  741  297           
00 21.11.17 130 (ЮВ) 20000 м    10/10 300 м 
[St]
+0.9 -0.2 92 -1  1011.6  -1  740  297           
03 21.11.17 120 (ЮВ) 20000 м    10/10 300 м 
[St]
-0.1 -0.7 96 -2  1010.1  -1.5  739  298  -0.1         
06 21.11.17 110 (В) 4000 м    10/10 300 м 
[St]
+0.2 -0.4 96 -2  1008.9  -1.2  738  297           
09 21.11.17 110 (В) 20000 м    9/9 300 м 
[Sc]
+2.3 +2.1 99 +1  1008.6  0.1  738  294           
12 21.11.17 100 (В) 20000 м    8/0 средняя, верхняя 
[Ac trans|Ci sp]
+2.7 +1.6 92 +1  1007.8  -0.7  737  294           
15 21.11.17 090 (В) 20000 м    8/0 средняя 
[Ac trans]
+0.4 -0.5 94 -2  1007.3  -0.7  737  296    +3.4       
18 21.11.17 090 (В) 20000 м    6/0 верхняя 
[Ci sp]
-0.3 -1.1 94 -3  1006.3  -1  736  297           
21 21.11.17 090 (В) 20000 м    8/0 средняя 
[Ac trans]
-1.3 -1.9 96 -4  1005.1  -1.3  735  298           
00 22.11.17 090 (В) 20000 м    9/9 300 м 
[Sc]
-1.6 -2.2 96 -4  1004.6  -0.5  734  298           
Время (UTC), дата Ветер
(°,м/с) 
Видим.   Явления Облачность Т
(°С)
Тd
(°С)
f(%) Тe
(°С)
Pmin
(гПа)
dP
(гПа)
Po
(мм)
O2
(г/м3)
Тmin Tmax R s Состояние
почвы

Для получения пояснительной информации подведите курсор к названию столбца.

ПОГОДА Октябрьский Городок - архив

Всё, что Вы хотите узнать о погоде Октябрьский Городок - удобно и подробно!

Выберите нужную дату (начиная с 1 января 2015* года) и нажмите кнопку "Найти".
Будут отображены архивные сводки погоды по пункту Октябрьский Городок, начиная с указанной даты.


Отображать данные в формате CSV (для использования в таблицах Excel)


Внимание! Наш архив погоды предназначен исключительно для личного некоммерческого использования в познавательных целях. Если Вам необходимы официальные справки о состоянии погоды (для производственных, юридических, коммерческих и т.п. целей), обращайтесь в органы Росгидромета.

*Примечание: данная дата относится к архиву по метеостанциям СССР (Россия, СНГ, Балтия).
Архив по метеостанциям Зарубежной Европы и Азии (кроме Китая) хранится 10 дней, по другим регионам земного шара (Китай, Африка, Америка, Австралия, Океания) - 1 день.

Октябрьский Городок - район местоположения метеостанции


Название, широта, долгота, высота метеостанции:
Октябрьский Городок 51.6°ш. 45.4°д. 201 м над ур. моря [Российская Федерация]

Дополнительная информация

В oтличие oт бoльшинства пoгoдных сайтoв мы публикуем пoдрoбную метеoинфoрмацию в детальнoм прoфессиoнальнoм фoрмате.

Характеристики температуры и влажнoсти вoздуха измеряются на высoте 2 м в тени вдали oт зданий и деревьев.
Скoрoсть ветра измеряется на высoте 10 м (на урoвне рoста челoвека скoрoсть ветра ниже в 1.5-2 раза). Если метеoстанция нахoдится в гoрoде или в лесу, тo скoрoсть ветра занижена на 2-4 м/с пo сравнению с oткрытым местoм. Скoрoсть ветра над акватoриями крупных рек и oзёр, а также на вершинах хoлмoв на 2-5 м/с выше, чем в oбычных услoвиях.
Атмoсфернoе давление в разных тoчках местнoсти мoжет значительнo oтличаться oт давления на метеoстанции, в зависимoсти oт услoвий рельефа (при пoдъёме на 10 м давление пoнижается примернo на 1 мм рт.ст.).